Weather History for New Bedford, MA

Change the Weather History Date:

Tuesday, August 21, 2012

  Actual Average Record
Temperature  
Mean Temperature 70 °F -  
Max Temperature 81 °F 78 °F 92 °F (1955)
Min Temperature 60 °F 61 °F 48 °F (2008)
Cooling Degree Days 6    
Growing Degree Days 20 (Base 50)    
Moisture  
Dew Point 61 °F    
Average Humidity 74    
Maximum Humidity 96    
Minimum Humidity 49    
Precipitation  
Precipitation 0.01 in - - ()
Sea Level Pressure  
Sea Level Pressure 29.99 in    
Wind  
Wind Speed 3 mph (WSW)    
Max Wind Speed 10 mph    
Max Gust Speed -    
Visibility 10 miles    
Events      
Averages and records for this station are not official NWS values.
T = Trace of Precipitation, MM = Missing Value Source: NWS Daily Summary

Daily Weather History Graph

Daily Weather History Graph

Search for Another Location

Airport:

Trip Planner

Search our weather history database for the weather conditions in past years. The results will help you decide how hot, cold, wet, or windy it might be!

Date:

Astronomy

Aug. 21, 2012 Rise Set
Actual Time 5:58 AM EDT 7:33 PM EDT
Civil Twilight 5:29 AM EDT 8:03 PM EDT
Nautical Twilight 4:54 AM EDT 8:38 PM EDT
Astronomical Twilight 4:16 AM EDT 9:16 PM EDT
Moon 10:30 AM EDT (8/21) 9:26 PM EDT (8/21)
Length of Visible Light 14h 33m
Length of Day
13h 35m
Waxing Crescent, 19% of the Moon is Illuminated
Aug 21
Waxing Crescent
Aug 24
First Quarter
Aug 31
Full
Sep 8
Last Quarter
Sep 15
New

Hourly Weather History & Observations

Time (EDT) Temp. Heat Index Dew Point Humidity Pressure Visibility Wind Dir Wind Speed Gust Speed Precip Events Conditions
12:53 AM 61.0 °F - 59.0 °F 93% 29.91 in 9.0 mi Calm Calm - N/A   Clear
1:53 AM 60.1 °F - 59.0 °F 96% 29.91 in 6.0 mi Calm Calm - N/A   Clear
2:53 AM 61.0 °F - 59.0 °F 93% 29.92 in 10.0 mi SW 4.6 mph - N/A   Clear
3:53 AM 62.1 °F - 59.0 °F 90% 29.92 in 10.0 mi Calm Calm - N/A   Partly Cloudy
4:53 AM 61.0 °F - 59.0 °F 93% 29.92 in 10.0 mi Calm Calm - N/A   Clear
5:53 AM 62.1 °F - 60.1 °F 93% 29.94 in 10.0 mi Calm Calm - N/A   Clear
6:53 AM 66.0 °F - 63.0 °F 90% 29.96 in 10.0 mi Calm Calm - 0.01 in   Overcast
7:53 AM 69.1 °F - 64.0 °F 84% 29.97 in 10.0 mi Calm Calm - N/A   Overcast
8:53 AM 71.1 °F - 63.0 °F 75% 29.96 in 10.0 mi West 3.5 mph - N/A   Overcast
9:53 AM 75.0 °F - 62.1 °F 64% 29.98 in 10.0 mi West 5.8 mph - N/A   Partly Cloudy
10:53 AM 75.9 °F - 61.0 °F 60% 29.99 in 10.0 mi WSW 6.9 mph - N/A   Clear
11:53 AM 78.1 °F - 59.0 °F 52% 29.99 in 10.0 mi West 6.9 mph - N/A   Clear
12:53 PM 79.0 °F - 59.0 °F 50% 29.99 in 10.0 mi WNW 9.2 mph - N/A   Partly Cloudy
1:53 PM 79.0 °F - 59.0 °F 50% 30.00 in 10.0 mi WNW 5.8 mph - N/A   Partly Cloudy
2:53 PM 79.0 °F - 61.0 °F 54% 29.99 in 10.0 mi WSW 4.6 mph - N/A   Clear
3:53 PM 81.0 °F 81.6 °F 60.1 °F 49% 29.99 in 10.0 mi Calm Calm - N/A   Clear
4:53 PM 79.0 °F - 62.1 °F 56% 29.99 in 10.0 mi SW 9.2 mph - N/A   Clear
5:53 PM 75.9 °F - 62.1 °F 62% 30.01 in 10.0 mi SW 10.4 mph - N/A   Clear
6:53 PM 72.0 °F - 61.0 °F 68% 30.02 in 10.0 mi SW 4.6 mph - N/A   Clear
7:53 PM 70.0 °F - 61.0 °F 73% 30.03 in 10.0 mi Calm Calm - N/A   Clear
8:53 PM 66.9 °F - 62.1 °F 84% 30.05 in 10.0 mi SW 4.6 mph - N/A   Clear
9:53 PM 66.9 °F - 62.1 °F 84% 30.06 in 10.0 mi SW 3.5 mph - N/A   Clear
10:53 PM 66.9 °F - 62.1 °F 84% 30.07 in 10.0 mi SW 4.6 mph - N/A   Clear
11:53 PM 63.0 °F - 60.1 °F 90% 30.08 in 9.0 mi Calm Calm - N/A   Clear